Location: Huesca
(42.1318°N, 0.4078°W)
Time: 21:07:59
(UTC+02:00)

Courier 1B Rocket - Pass Details

Date: 24 July 2024
Orbit: 920 x 1201 km, 28.2° (Epoch: 22 June)

Event Time Altitude Azimuth Distance (km) Brightness Sun altitude
Rises 19:00:37 0° 256° (WSW) 4,094 9.4 25.4°
Reaches altitude 10° 19:04:10 10° 243° (WSW) 3,124 8.7 24.7°
Maximum altitude 19:09:52 22° 195° (SSW) 2,297 7.2 23.7°
Drops below altitude 10° 19:15:26 10° 148° (SSE) 3,038 7.3 22.6°
Sets 19:18:51 0° 134° (SE) 3,955 7.7 22.0°
